This demonstration page uses our WeatherBlox Daily Observations layout. Learn more.

Left ArrowRight Arrow

44.8408, -93.29828

Hourly Observations for March 16, 2016

Temp ( °F °C ) Dew Point ( °F °C ) Humidity (%) Winds ( mph kmh ) Pressure ( in mb ) Visibility ( mi km ) Precip ( " mm )
12:53 am 00:53 Cloudy with Light Rain 45 7.2 39 3.9 80 80 NNW 18 30 29.52 1000 10 16 0.00 0.03
1:30 am 01:30 Cloudy with Light Rain 45 7 39 4 81 81 NNW 18 30 29.53 1000 9 14 0.00 0.00
1:39 am 01:39 Cloudy with Light Rain 44 6.7 39 3.9 83 83 NNW 23 37 29.53 1000 10 16 0.02 0.51
1:53 am 01:53 Cloudy with Light Rain 44 6.7 39 3.9 83 83 NW 20 31 29.52 1000 10 16 0.03 0.76
2:53 am 02:53 Cloudy with Light Rain 44 6.7 38 3.3 79 79 NW 18 30 29.51 999 8 13 0.03 0.76
3:53 am 03:53 Cloudy 44 6.7 37 2.8 76 76 NW 15 24 29.49 999 10 16 0.00 0.03
4:53 am 04:53 Cloudy 42 5.6 34 1.1 73 73 NW 16 26 29.49 999 10 16 0.00 0.00
5:53 am 05:53 Cloudy 42 5.6 33 0.6 71 71 NW 17 28 29.52 1000 10 16 0.00 0.00
6:53 am 06:53 Cloudy 41 5 33 0.6 73 73 WNW 23 37 29.52 1000 10 16 0.00 0.00
7:53 am 07:53 Cloudy 41 5 33 0.6 73 73 WNW 21 33 29.54 1000 10 16 0.00 0.00
8:47 am 08:47 Cloudy 39 4 32 0 75 75 WNW 24 39 29.56 1001 10 16 0.00 0.00
8:53 am 08:53 Cloudy 40 4.4 32 0 73 73 WNW 22 35 29.54 1000 10 16 0.00 0.00
9:53 am 09:53 Cloudy 42 5.6 31 -0.6 65 65 WNW 26 43 29.55 1001 10 16 0.00 0.00
10:53 am 10:53 Cloudy 42 5.6 30 -1.1 62 62 WNW 22 35 29.58 1002 10 16 0.00 0.00
11:53 am 11:53 Cloudy 43 6.1 29 -1.7 58 58 WNW 24 39 29.59 1002 10 16 0.00 0.00
12:53 pm 12:53 Mostly Cloudy 48 8.9 28 -2.2 46 46 WNW 31 50 29.59 1002 10 16 0.00 0.00
1:53 pm 13:53 Cloudy 48 8.9 27 -2.8 44 44 WNW 25 41 29.59 1002 10 16 0.00 0.00
2:53 pm 14:53 Cloudy 46 7.8 26 -3.3 46 46 WNW 22 35 29.62 1003 10 16 0.00 0.00
3:53 pm 15:53 Cloudy 46 7.8 26 -3.3 46 46 WNW 29 46 29.63 1003 10 16 0.00 0.00
4:53 pm 16:53 Cloudy 45 7.2 26 -3.3 48 48 W 26 43 29.65 1004 10 16 0.00 0.00
5:53 pm 17:53 Cloudy 44 6.7 27 -2.8 51 51 WNW 24 39 29.67 1005 10 16 0.00 0.00
6:53 pm 18:53 Cloudy 44 6.7 27 -2.8 51 51 WNW 16 26 29.68 1005 10 16 0.00 0.00
7:53 pm 19:53 Cloudy 43 6.1 27 -2.8 53 53 W 14 22 29.68 1005 10 16 0.00 0.00
8:53 pm 20:53 Cloudy 43 6.1 27 -2.8 53 53 W 13 20 29.69 1005 10 16 0.00 0.00
9:53 pm 21:53 Mostly Cloudy 43 6.1 28 -2.2 56 56 WSW 9 15 29.69 1005 10 16 0.00 0.00
10:53 pm 22:53 Cloudy 43 6.1 29 -1.7 58 58 W 10 17 29.69 1005 10 16 0.00 0.00
11:53 pm 23:53 Cloudy 42 5.6 30 -1.1 62 62 WSW 10 17 29.69 1005 10 16 0.00 0.00

Powered by AerisWeather